| time (UTC) | temp C | wind direction | speed KPH | gust KPH | rain 1hr cm | rain 24hr cm | rain mn cm | humidity % | barometer mb |
| 20260509011632 | 21 | 135 | 1.6 | 1.6 | 0.00 | 1.88 | 1.88 | 75 | 1011.2 |
| 20260509010607 | 21 | 90 | 1.6 | 1.6 | 0.00 | 1.88 | 1.88 | 74 | 1011.0 |
| 20260509005631 | 21 | 0.0 | 0.0 | 0.00 | 1.88 | 1.88 | 73 | 1011.0 | |
| 20260509004608 | 22 | 0.0 | 0.0 | 0.00 | 1.88 | 1.88 | 72 | 1010.7 | |
| 20260509003632 | 22 | 0.0 | 1.6 | 0.00 | 1.88 | 1.88 | 72 | 1010.5 | |
| 20260509002608 | 22 | 0.0 | 1.6 | 0.00 | 1.88 | 1.88 | 68 | 1010.6 | |
| 20260509001632 | 23 | 225 | 1.6 | 1.6 | 0.00 | 1.88 | 1.88 | 67 | 1010.4 |
| 20260509000608 | 23 | 0.0 | 1.6 | 0.00 | 1.88 | 1.88 | 65 | 1010.6 | |
| 20260508235632 | 23 | 0 | 1.6 | 1.6 | 0.00 | 1.88 | 1.88 | 64 | 1010.8 |
| 20260508234608 | 25 | 135 | 6.4 | 11.3 | 0.00 | 1.88 | 1.88 | 63 | 1010.3 |
| 20260508233631 | 25 | 180 | 4.8 | 8.0 | 0.00 | 1.88 | 1.88 | 63 | 1010.9 |
| 20260508232608 | 25 | 135 | 3.2 | 4.8 | 0.00 | 1.88 | 1.88 | 64 | 1010.9 |
| 20260508231631 | 25 | 0.0 | 1.6 | 0.00 | 1.88 | 1.88 | 63 | 1010.8 | |
| 20260508230608 | 25 | 90 | 1.6 | 1.6 | 0.00 | 1.88 | 1.88 | 63 | 1011.0 |
| 20260508225632 | 26 | 135 | 1.6 | 3.2 | 0.00 | 1.88 | 1.88 | 61 | 1010.8 |
| 20260508224608 | 27 | 135 | 1.6 | 1.6 | 0.00 | 1.88 | 1.88 | 61 | 1011.0 |
| 20260508223652 | 27 | 135 | 1.6 | 3.2 | 0.00 | 1.88 | 1.88 | 61 | 1011.0 |
| 20260508222608 | 27 | 90 | 1.6 | 1.6 | 0.00 | 1.88 | 1.88 | 59 | 1011.0 |
| 20260508221632 | 27 | 135 | 1.6 | 1.6 | 0.00 | 1.88 | 1.88 | 59 | 1010.9 |
| 20260508220608 | 27 | 135 | 1.6 | 1.6 | 0.00 | 1.88 | 1.88 | 56 | 1010.8 |
| 20260508215631 | 27 | 135 | 4.8 | 4.8 | 0.00 | 1.88 | 1.88 | 59 | 1010.8 |
| 20260508214608 | 27 | 45 | 4.8 | 8.0 | 0.00 | 1.88 | 1.88 | 59 | 1010.6 |
| 20260508213632 | 27 | 90 | 4.8 | 8.0 | 0.00 | 1.88 | 1.88 | 57 | 1010.7 |
| 20260508212608 | 27 | 135 | 4.8 | 4.8 | 0.00 | 1.88 | 1.88 | 56 | 1011.1 |
| 20260508211652 | 26 | 135 | 3.2 | 4.8 | 0.00 | 1.88 | 1.88 | 61 | 1011.5 |
| 20260508210608 | 25 | 90 | 4.8 | 8.0 | 0.00 | 1.88 | 1.88 | 62 | 1011.7 |
| 20260508205632 | 25 | 203 | 1.6 | 4.8 | 0.00 | 1.88 | 1.88 | 61 | 1012.0 |
| 20260508204608 | 26 | 135 | 1.6 | 4.8 | 0.00 | 1.88 | 1.88 | 61 | 1012.4 |
| 20260508203632 | 26 | 90 | 1.6 | 3.2 | 0.00 | 1.88 | 1.88 | 61 | 1012.5 |
| 20260508202608 | 26 | 90 | 1.6 | 1.6 | 0.00 | 1.88 | 1.88 | 60 | 1012.3 |
| 20260508201632 | 26 | 135 | 1.6 | 1.6 | 0.00 | 1.88 | 1.88 | 60 | 1012.6 |
| 20260508200608 | 26 | 225 | 1.6 | 4.8 | 0.00 | 1.88 | 1.88 | 57 | 1012.7 |
| 20260508195632 | 27 | 180 | 3.2 | 4.8 | 0.00 | 1.88 | 1.88 | 57 | 1012.6 |
| 20260508194607 | 27 | 158 | 1.6 | 3.2 | 0.00 | 1.88 | 1.88 | 57 | 1012.7 |
| 20260508193632 | 26 | 135 | 1.6 | 1.6 | 0.00 | 1.88 | 1.88 | 55 | 1013.0 |
| 20260508192607 | 27 | 135 | 6.4 | 11.3 | 0.00 | 1.88 | 1.88 | 54 | 1013.0 |
| 20260508191632 | 27 | 90 | 4.8 | 8.0 | 0.00 | 1.88 | 1.88 | 56 | 1013.3 |
| 20260508190608 | 26 | 90 | 4.8 | 4.8 | 0.00 | 1.88 | 1.88 | 59 | 1013.2 |
| 20260508185631 | 26 | 0 | 3.2 | 4.8 | 0.00 | 1.88 | 1.88 | 60 | 1013.3 |
| 20260508184608 | 25 | 90 | 4.8 | 8.0 | 0.00 | 1.88 | 1.88 | 57 | 1013.3 |
| 20260508183632 | 25 | 90 | 3.2 | 4.8 | 0.00 | 1.88 | 1.88 | 56 | 1013.6 |
| 20260508182608 | 25 | 135 | 8.0 | 8.0 | 0.00 | 1.88 | 1.88 | 56 | 1013.8 |
| 20260508181712 | 25 | 135 | 8.0 | 11.3 | 0.00 | 1.88 | 1.88 | 60 | 1013.9 |
| 20260508180628 | 24 | 315 | 1.6 | 4.8 | 0.00 | 1.88 | 1.88 | 60 | 1014.1 |
| 20260508175632 | 24 | 45 | 1.6 | 1.6 | 0.00 | 1.88 | 1.88 | 57 | 1014.2 |
| 20260508174607 | 23 | 90 | 3.2 | 4.8 | 0.00 | 1.88 | 1.88 | 56 | 1014.5 |
| 20260508173632 | 24 | 90 | 4.8 | 8.0 | 0.00 | 1.88 | 1.88 | 57 | 1014.6 |
| 20260508172628 | 24 | 90 | 1.6 | 3.2 | 0.00 | 1.88 | 1.88 | 61 | 1014.9 |
| 20260508171632 | 23 | 0.0 | 1.6 | 0.00 | 1.88 | 1.88 | 61 | 1015.0 | |
| 20260508170608 | 23 | 90 | 1.6 | 3.2 | 0.00 | 1.88 | 1.88 | 64 | 1015.2 |
| 20260508165712 | 23 | 90 | 1.6 | 1.6 | 0.00 | 1.88 | 1.88 | 65 | 1015.6 |
| 20260508164608 | 22 | 180 | 1.6 | 4.8 | 0.00 | 1.88 | 1.88 | 65 | 1015.7 |
| 20260508163631 | 22 | 90 | 1.6 | 3.2 | 0.00 | 1.88 | 1.88 | 71 | 1015.8 |
| 20260508162608 | 21 | 180 | 1.6 | 4.8 | 0.00 | 1.88 | 1.88 | 74 | 1016.0 |
| 20260508161631 | 20 | 225 | 1.6 | 3.2 | 0.00 | 1.88 | 1.88 | 74 | 1016.0 |
| 20260508160608 | 20 | 90 | 1.6 | 1.6 | 0.00 | 1.88 | 1.88 | 77 | 1016.1 |
| 20260508155652 | 19 | 0.0 | 1.6 | 0.00 | 1.88 | 1.88 | 78 | 1016.3 | |
| 20260508154628 | 19 | 0.0 | 0.0 | 0.00 | 1.88 | 1.88 | 76 | 1016.4 | |
| 20260508153652 | 20 | 90 | 1.6 | 1.6 | 0.00 | 1.88 | 1.88 | 78 | 1016.2 |
| 20260508152608 | 19 | 90 | 1.6 | 1.6 | 0.00 | 1.88 | 1.88 | 81 | 1016.2 |
| 20260508151632 | 18 | 90 | 1.6 | 3.2 | 0.00 | 1.88 | 1.88 | 81 | 1016.4 |
| 20260508150607 | 18 | 90 | 3.2 | 4.8 | 0.00 | 1.88 | 1.88 | 83 | 1016.3 |
| 20260508145631 | 18 | 90 | 1.6 | 1.6 | 0.00 | 1.88 | 1.88 | 86 | 1016.6 |
| 20260508144608 | 17 | 90 | 1.6 | 1.6 | 0.00 | 1.88 | 1.88 | 93 | 1016.5 |
| 20260508143632 | 17 | 180 | 1.6 | 4.8 | 0.00 | 1.88 | 1.88 | 95 | 1016.8 |
| 20260508142608 | 17 | 90 | 1.6 | 1.6 | 0.00 | 1.88 | 1.88 | 99 | 1016.6 |
| 20260508141632 | 17 | 90 | 1.6 | 1.6 | 0.00 | 1.88 | 1.88 | 99 | 1016.9 |
| 20260508140608 | 17 | 0.0 | 3.2 | 0.00 | 1.88 | 1.88 | 99 | 1016.6 | |
| 20260508135632 | 16 | 0.0 | 0.0 | 0.00 | 1.88 | 1.88 | 99 | 1016.9 | |
| 20260508134628 | 16 | 45 | 1.6 | 3.2 | 0.00 | 1.88 | 1.88 | 99 | 1016.7 |
| 20260508133631 | 16 | 0.0 | 1.6 | 0.03 | 1.88 | 1.88 | 99 | 1016.9 | |
| 20260508132607 | 15 | 0.0 | 0.0 | 0.03 | 1.88 | 1.88 | 99 | 1016.4 | |
| 20260508131631 | 15 | 135 | 1.6 | 1.6 | 0.03 | 1.88 | 1.88 | 99 | 1016.5 |
| 20260508130608 | 15 | 90 | 1.6 | 3.2 | 0.03 | 1.88 | 1.88 | 99 | 1017.1 |
| 20260508125632 | 15 | 0 | 1.6 | 1.6 | 0.03 | 1.88 | 1.88 | 99 | 1017.0 |
| 20260508124628 | 15 | 0.0 | 1.6 | 0.03 | 1.88 | 1.88 | 99 | 1017.2 | |
| 20260508123632 | 15 | 0.0 | 0.0 | 0.00 | 1.85 | 1.85 | 99 | 1016.8 | |
| 20260508122608 | 15 | 0.0 | 0.0 | 0.20 | 1.85 | 1.85 | 99 | 1017.0 | |
| 20260508121631 | 15 | 0.0 | 0.0 | 0.38 | 1.85 | 1.85 | 99 | 1017.1 | |
| 20260508120608 | 15 | 180 | 1.6 | 1.6 | 0.61 | 1.85 | 1.85 | 99 | 1017.0 |
| 20260508115631 | 14 | 180 | 1.6 | 1.6 | 0.76 | 1.85 | 1.85 | 99 | 1016.7 |
| 20260508114608 | 14 | 270 | 1.6 | 3.2 | 1.42 | 1.85 | 1.85 | 99 | 1016.8 |
| 20260508113632 | 14 | 0.0 | 1.6 | 1.45 | 1.85 | 1.85 | 98 | 1016.6 | |
| 20260508112608 | 14 | 135 | 1.6 | 1.6 | 1.35 | 1.65 | 1.65 | 98 | 1016.3 |
| 20260508111631 | 14 | 90 | 1.6 | 3.2 | 1.19 | 1.47 | 1.47 | 98 | 1016.7 |
| 20260508110608 | 14 | 0.0 | 1.6 | 0.99 | 1.27 | 1.27 | 98 | 1017.1 | |
| 20260508105632 | 15 | 45 | 3.2 | 4.8 | 0.84 | 1.12 | 1.12 | 98 | 1017.3 |
| 20260508104608 | 15 | 225 | 1.6 | 3.2 | 0.18 | 0.46 | 0.46 | 98 | 1017.3 |
| 20260508103632 | 15 | 90 | 1.6 | 3.2 | 0.15 | 0.43 | 0.43 | 98 | 1016.6 |
| 20260508102607 | 15 | 225 | 3.2 | 4.8 | 0.03 | 0.30 | 0.30 | 98 | 1016.4 |
| 20260508101651 | 15 | 0.0 | 0.0 | 0.00 | 0.28 | 0.28 | 97 | 1016.0 | |
| 20260508100608 | 14 | 0.0 | 1.6 | 0.00 | 0.28 | 0.28 | 97 | 1015.6 | |
| 20260508095652 | 14 | 0.0 | 0.0 | 0.00 | 0.28 | 0.28 | 97 | 1015.6 | |
| 20260508094628 | 14 | 45 | 1.6 | 1.6 | 0.03 | 0.28 | 0.28 | 96 | 1015.7 |
| 20260508093652 | 14 | 0.0 | 0.0 | 0.03 | 0.28 | 0.28 | 96 | 1016.0 | |
| 20260508092607 | 14 | 90 | 1.6 | 1.6 | 0.03 | 0.28 | 0.28 | 95 | 1015.9 |
| 20260508091632 | 14 | 45 | 1.6 | 3.2 | 0.13 | 0.28 | 0.28 | 94 | 1016.2 |
| 20260508090608 | 14 | 0.0 | 0.0 | 0.28 | 0.28 | 0.28 | 94 | 1016.6 | |
| 20260508085632 | 15 | 0.0 | 0.0 | 0.28 | 0.28 | 0.28 | 94 | 1016.5 | |
| 20260508084608 | 14 | 45 | 1.6 | 3.2 | 0.23 | 0.23 | 0.23 | 93 | 1016.1 |
| 20260508083652 | 14 | 0.0 | 1.6 | 0.23 | 0.23 | 0.23 | 92 | 1016.2 | |
| 20260508082608 | 14 | 0.0 | 0.0 | 0.23 | 0.23 | 0.23 | 91 | 1016.4 | |
| 20260508081631 | 15 | 0.0 | 1.6 | 0.15 | 0.15 | 0.15 | 91 | 1016.8 | |
| 20260508080607 | 14 | 0.0 | 1.6 | 0.00 | 0.00 | 0.00 | 91 | 1017.6 | |
| 20260508075632 | 14 | 270 | 1.6 | 1.6 | 0.00 | 0.00 | 0.00 | 91 | 1017.4 |
| 20260508074608 | 14 | 0.0 | 0.0 | 0.00 | 0.00 | 0.00 | 90 | 1017.3 | |
| 20260508073652 | 13 | 0.0 | 0.0 | 0.00 | 0.00 | 0.00 | 90 | 1017.2 | |
| 20260508072608 | 13 | 0.0 | 0.0 | 0.00 | 0.00 | 0.00 | 90 | 1017.0 | |
| 20260508071632 | 13 | 0.0 | 0.0 | 0.00 | 0.00 | 0.00 | 89 | 1017.2 | |
| 20260508070607 | 13 | 0.0 | 0.0 | 0.00 | 0.00 | 0.00 | 88 | 1017.2 | |
| 20260508065652 | 13 | 0.0 | 0.0 | 0.00 | 0.00 | 0.00 | 87 | 1017.4 | |
| 20260508064607 | 13 | 0.0 | 0.0 | 0.00 | 0.00 | 0.00 | 87 | 1017.9 | |
| 20260508063632 | 13 | 0.0 | 0.0 | 0.00 | 0.00 | 0.00 | 86 | 1017.9 | |
| 20260508062628 | 13 | 0.0 | 0.0 | 0.00 | 0.00 | 0.00 | 85 | 1017.9 | |
| 20260508061632 | 14 | 0.0 | 0.0 | 0.00 | 0.00 | 0.00 | 85 | 1017.7 | |
| 20260508060607 | 14 | 0.0 | 0.0 | 0.00 | 0.00 | 0.00 | 85 | 1017.5 | |
| 20260508055652 | 14 | 0.0 | 0.0 | 0.00 | 0.00 | 0.00 | 84 | 1017.6 | |
| 20260508054123 | 14 | 0.0 | 0.0 | 0.00 | 0.00 | 0.00 | 83 | 1017.7 | |
| 20260508053147 | 14 | 0.0 | 0.0 | 0.00 | 0.00 | 0.00 | 83 | 1017.9 | |
| 20260508052123 | 14 | 0.0 | 0.0 | 0.00 | 0.00 | 0.00 | 82 | 1017.9 | |
| 20260508051147 | 15 | 0.0 | 0.0 | 0.00 | 0.00 | 0.00 | 82 | 1017.7 | |
| 20260508050223 | 15 | 0.0 | 0.0 | 0.00 | 0.00 | 0.00 | 82 | 1017.9 | |
| 20260508045147 | 15 | 0.0 | 0.0 | 0.00 | 0.00 | 0.00 | 81 | 1017.8 | |
| 20260508044123 | 15 | 0.0 | 0.0 | 0.00 | 0.00 | 0.00 | 81 | 1017.5 | |
| 20260508043147 | 15 | 0.0 | 0.0 | 0.00 | 0.00 | 0.00 | 80 | 1017.8 | |
| 20260508042123 | 15 | 0.0 | 0.0 | 0.00 | 0.00 | 0.00 | 80 | 1017.9 | |
| 20260508041247 | 15 | 0.0 | 0.0 | 0.00 | 0.00 | 0.00 | 80 | 1017.9 | |
| 20260508040123 | 15 | 0.0 | 0.0 | 0.00 | 0.00 | 0.00 | 79 | 1017.7 | |
| 20260508035147 | 15 | 0.0 | 0.0 | 0.00 | 0.00 | 0.00 | 78 | 1017.8 | |
| 20260508034123 | 15 | 0.0 | 0.0 | 0.00 | 0.00 | 0.00 | 78 | 1017.6 | |
| 20260508033147 | 15 | 0.0 | 0.0 | 0.00 | 0.00 | 0.00 | 77 | 1017.6 | |
| 20260508032123 | 15 | 0.0 | 0.0 | 0.00 | 0.00 | 0.00 | 76 | 1017.4 | |
| 20260508031207 | 15 | 0.0 | 0.0 | 0.00 | 0.00 | 0.00 | 76 | 1017.3 | |
| 20260508030143 | 15 | 0.0 | 0.0 | 0.00 | 0.00 | 0.00 | 75 | 1017.5 | |
| 20260508025207 | 15 | 0.0 | 0.0 | 0.00 | 0.00 | 0.00 | 75 | 1017.4 | |
| 20260508024123 | 16 | 0.0 | 0.0 | 0.00 | 0.00 | 0.00 | 74 | 1017.4 | |
| 20260508023147 | 16 | 0.0 | 0.0 | 0.00 | 0.00 | 0.00 | 73 | 1017.2 | |
| 20260508022123 | 16 | 0.0 | 0.0 | 0.00 | 0.00 | 0.00 | 72 | 1017.2 | |
| 20260508021147 | 16 | 0.0 | 0.0 | 0.00 | 0.00 | 0.00 | 72 | 1017.3 | |
| 20260508020123 | 16 | 0.0 | 1.6 | 0.00 | 0.00 | 0.00 | 71 | 1017.1 | |
| 20260508015147 | 16 | 0.0 | 0.0 | 0.00 | 0.00 | 0.00 | 71 | 1017.1 | |
| 20260508014123 | 17 | 0.0 | 0.0 | 0.00 | 0.00 | 0.00 | 70 | 1017.1 | |
| 20260508013147 | 17 | 0.0 | 0.0 | 0.00 | 0.00 | 0.00 | 65 | 1017.1 | |
| 20260508012204 | 17 | 0.0 | 1.6 | 0.00 | 0.00 | 0.00 | 64 | 1016.9 |